Location: Cambroso
(45.2833°N, 12.0850°E)
Time: 11:56:33
(UTC+00:00)

SJ-11-01 - Pass Details

Date: 21 January 2021
Orbit: 684 x 700 km, 98.0° (Epoch: 07 March)

Event Time Altitude Azimuth Distance (km) Brightness Sun altitude
Rises 17:48:46 0° 160° (SSE) 3,056 7.5 -18.3°
Reaches altitude 10° 17:51:00 10° 159° (SSE) 2,142 6.7 -18.7°
Maximum altitude 17:55:41 75° 75° (ENE) 720 4.1 -19.5°
Drops below altitude 10° 18:00:22 10° 350° (N) 2,148 6.8 -20.3°
Sets 18:02:38 0° 349° (N) 3,067 7.7 -20.7°
